User: anonymous   Login
Location: Caltech
(34.1382°N, 118.1253°W)
Time: 20:27:17
(UTC-08:00)
Language:

SEDSat Delta rocket - Orbit

View from above orbital plane
View from above orbital plane
View from above satellite
View from above satellite

Ground track
Ground track

The orbit data is extracted from the following two-line orbital elements,

1 25510U 98061C   15058.96662656  .00001141  00000-0  19024-3 0  9998
2 25510 031.4348 277.2032 0331036 193.2476 307.9704 14.36418309856377
Epoch (UTC): 27 February 2015 23:11:56
Eccentricity: 0.0331036
inclination: 31.4348°
perigee height: 534 km
apogee height: 1007 km
right ascension of ascending node: 277.2032°
argument of perigee: 193.2476°
revolutions per day: 14.36418309
mean anomaly at epoch: 307.9704°
orbit number at epoch: 85637

The dashed part of the orbit path shows where the satellite is in the earth's shadow,  

DLR